Location: *
(38.3914°N, 75.0697°W)
Time: 04:26:16
(UTC+00:00)

Okean O Rocket - Pass Details

Date: 17 February 2020
Orbit: 622 x 645 km, 98.2° (Epoch: 29 March)

Event Time Altitude Azimuth Distance (km) Brightness Sun altitude
Rises 09:51:21 0° 28° (NNE) 2,926 5.4 -23.7°
Reaches altitude 10° 09:54:00 10° 44° (NE) 2,009 4.8 -23.2°
Maximum altitude 09:57:22 22° 95° (E) 1,388 4.2 -22.5°
Drops below altitude 10° 10:00:43 10° 146° (SE) 1,989 4.6 -21.8°
Sets 10:03:18 0° 162° (SSE) 2,888 5.2 -21.3°
